GW5283 Weather Reports


time (UTC)temp
C
wind
direction
speed
KPH
gust
KPH
rain 1hr
cm
rain 24hr
cm
rain mn
cm
humidity
%
barometer
mb
20260505124654 5 2 3.2 3.2 0.00 0.00 0.00 86 1031.5
20260505124151 5 13 1.6 1.6 0.00 0.00 0.00 85 1031.1
20260505123647 5 8 0.0 1.6 0.00 0.00 0.00 85 1031.2
20260505123144 5 13 0.0 1.6 0.00 0.00 0.00 84 1031.2
20260505122640 5 7 3.2 4.8 0.00 0.00 0.00 84 1030.8
20260505122138 5 10 1.6 1.6 0.00 0.00 0.00 83 1030.7
20260505121634 5 10 1.6 1.6 0.00 0.00 0.00 82 1031.0
20260505121131 5 13 0.0 1.6 0.00 0.00 0.00 82 1030.6
20260505120627 5 13 0.0 0.0 0.00 0.00 0.00 81 1030.6
20260505120123 5 12 1.6 1.6 0.00 0.00 0.00 81 1030.6
20260505115617 5 14 0.0 1.6 0.00 0.00 0.00 80 1030.6
20260505115115 5 359 3.2 3.2 0.00 0.00 0.00 79 1030.7
20260505114612 5 13 0.0 0.0 0.00 0.00 0.00 80 1030.5
20260505114108 5 12 0.0 1.6 0.00 0.00 0.00 80 1030.5
20260505113605 5 14 0.0 0.0 0.00 0.00 0.00 80 1030.6
20260505113102 5 15 0.0 1.6 0.00 0.00 0.00 82 1030.5
20260505112558 5 15 0.0 0.0 0.00 0.00 0.00 81 1030.5
20260505112056 5 16 0.0 0.0 0.00 0.00 0.00 82 1030.3
20260505111555 5 16 0.0 0.0 0.00 0.00 0.00 82 1030.3
20260505111051 5 16 0.0 0.0 0.00 0.00 0.00 82 1030.7
20260505110548 5 16 0.0 0.0 0.00 0.00 0.00 84 1030.7
20260505102020 5 31 0.0 0.0 0.00 0.00 0.00 91 1030.5
20260505101519 5 31 0.0 0.0 0.00 0.00 0.00 91 1030.3
20260505101015 5 32 0.0 0.0 0.00 0.00 0.00 91 1030.2
20260505100513 5 32 0.0 0.0 0.00 0.00 0.00 91 1030.5
20260505100009 5 32 0.0 0.0 0.00 0.00 0.00 90 1030.5
20260505095505 5 31 0.0 0.0 0.00 0.00 0.00 90 1030.3
20260505095001 5 31 0.0 0.0 0.00 0.00 0.00 89 1030.3
20260505094458 5 32 0.0 0.0 0.00 0.00 0.00 89 1030.2
20260505093955 5 32 0.0 0.0 0.00 0.00 0.00 89 1030.2
20260505093451 5 32 0.0 0.0 0.00 0.00 0.00 88 1030.0
20260505092949 5 32 0.0 0.0 0.00 0.00 0.00 88 1030.2
20260505092446 5 32 0.0 0.0 0.00 0.00 0.00 88 1030.0
20260505091944 5 32 0.0 0.0 0.00 0.00 0.00 87 1030.1
20260505091441 5 32 0.0 0.0 0.00 0.00 0.00 86 1030.2
20260505090939 5 32 0.0 0.0 0.00 0.00 0.00 86 1030.5
20260505090437 5 32 0.0 0.0 0.00 0.00 0.00 86 1030.2
20260505085934 6 14 0.0 1.6 0.00 0.00 0.00 85 1030.3
20260505085432 6 15 0.0 1.6 0.00 0.00 0.00 85 1030.7
20260505084930 6 42 0.0 0.0 0.00 0.00 0.00 86 1030.8
20260505084428 6 30 0.0 0.0 0.00 0.00 0.00 87 1030.8
20260505083925 6 29 0.0 0.0 0.00 0.00 0.00 88 1030.8
20260505083422 6 26 0.0 0.0 0.00 0.00 0.00 88 1031.0
20260505082918 6 35 0.0 0.0 0.00 0.00 0.00 89 1031.0
20260505082414 6 36 0.0 0.0 0.00 0.00 0.00 89 1031.0
20260505081912 6 36 0.0 0.0 0.00 0.00 0.00 89 1030.8
20260505081409 6 36 0.0 0.0 0.00 0.00 0.00 89 1031.1
20260505080905 6 35 0.0 0.0 0.00 0.00 0.00 88 1031.0
20260505080401 6 35 0.0 0.0 0.00 0.00 0.00 88 1030.8
20260505075857 6 41 0.0 0.0 0.00 0.00 0.00 88 1031.1
20260505075354 6 34 0.0 0.0 0.00 0.00 0.00 88 1031.0
20260505074851 6 34 0.0 0.0 0.00 0.00 0.00 88 1031.1
20260505074348 6 34 0.0 1.6 0.00 0.00 0.00 88 1031.2
20260505073845 6 34 0.0 0.0 0.00 0.00 0.00 88 1031.2
20260505073343 6 36 0.0 0.0 0.00 0.00 0.00 88 1031.2
20260505072840 6 44 0.0 0.0 0.00 0.00 0.00 88 1031.2
20260505072336 6 31 0.0 0.0 0.00 0.00 0.00 88 1031.5
20260505071832 6 28 0.0 0.0 0.00 0.00 0.00 88 1031.5
20260505071328 6 28 0.0 0.0 0.00 0.00 0.00 88 1031.2
20260505070827 6 64 1.6 1.6 0.00 0.00 0.00 88 1031.5
20260505070323 6 22 0.0 0.0 0.00 0.00 0.00 88 1031.3
20260505065818 6 42 0.0 0.0 0.00 0.00 0.00 87 1031.2
20260505065315 6 40 0.0 0.0 0.00 0.00 0.00 87 1031.2
20260505064812 6 43 0.0 0.0 0.00 0.00 0.00 87 1031.3
20260505064309 6 48 1.6 3.2 0.00 0.00 0.00 87 1031.1
20260505063808 6 30 0.0 1.6 0.00 0.00 0.00 87 1031.2
20260505063303 6 37 0.0 0.0 0.00 0.00 0.00 86 1031.3
20260505062800 6 22 1.6 1.6 0.00 0.00 0.00 86 1031.5
20260505062258 6 37 0.0 0.0 0.00 0.00 0.00 86 1031.2
20260505061754 6 40 0.0 0.0 0.00 0.00 0.00 85 1031.3
20260505061252 6 27 0.0 0.0 0.00 0.00 0.00 85 1031.3
20260505060750 7 48 0.0 1.6 0.00 0.00 0.00 85 1031.5
20260505060247 7 37 0.0 0.0 0.18 0.00 0.00 84 1031.7
20260505055741 7 45 0.0 1.6 0.18 0.05 0.05 82 1031.7
20260505055238 7 38 0.0 0.0 0.00 0.03 0.03 82 1032.0
20260505054736 7 39 0.0 0.0 0.00 0.03 0.03 79 1031.7
20260505054233 7 12 0.0 0.0 0.00 0.03 0.03 79 1031.8
20260505053732 7 30 0.0 1.6 0.00 0.03 0.03 77 1031.7
20260505053227 7 53 1.6 1.6 0.00 0.03 0.03 75 1031.7
20260505052725 7 36 0.0 0.0 0.00 0.03 0.03 74 1031.6
20260505052221 7 42 0.0 0.0 0.00 0.03 0.03 72 1031.7
20260505051719 7 39 0.0 0.0 0.00 0.03 0.03 72 1031.7
20260505051217 7 39 0.0 0.0 0.00 0.03 0.03 73 1031.8
20260505050715 7 39 0.0 0.0 0.00 0.03 0.03 71 1031.7
20260505050213 7 24 0.0 0.0 0.00 0.03 0.03 73 1031.8
20260505041648 7 22 0.0 0.0 0.00 0.03 0.03 73 1030.8
20260505041145 7 12 1.6 1.6 0.00 0.03 0.03 74 1030.6
20260505040643 7 14 0.0 0.0 0.00 0.03 0.03 74 1030.6
20260505040140 7 48 0.0 1.6 0.00 0.03 0.03 74 1030.6
20260505035636 7 29 0.0 0.0 0.00 0.03 0.03 73 1030.6
20260505035132 7 95 1.6 4.8 0.00 0.03 0.03 73 1030.6
20260505034629 7 55 1.6 1.6 0.00 0.03 0.03 72 1030.8
20260505034126 7 67 1.6 3.2 0.00 0.03 0.03 73 1030.6
20260505033622 7 28 0.0 0.0 0.00 0.03 0.03 75 1030.8
20260505033121 8 36 0.0 1.6 0.00 0.03 0.03 73 1030.8
20260505032619 8 41 0.0 0.0 0.00 0.03 0.03 72 1030.8
20260505032114 8 29 1.6 1.6 0.00 0.03 0.03 71 1030.6
20260505031612 8 350 1.6 3.2 0.00 0.03 0.03 70 1030.5
20260505031109 8 77 3.2 3.2 0.00 0.03 0.03 70 1030.2
20260505030606 8 46 0.0 0.0 0.00 0.03 0.03 72 1030.2
20260505025557 8 35 0.0 0.0 0.00 0.03 0.03 72 1030.6
20260505025056 8 42 0.0 0.0 0.00 0.03 0.03 72 1030.8
20260505024553 8 44 0.0 0.0 0.00 0.03 0.03 73 1030.6
20260505024050 8 38 0.0 0.0 0.00 0.03 0.03 73 1030.5
20260505023547 8 26 0.0 0.0 0.00 0.03 0.03 72 1030.5
20260505023045 8 24 0.0 0.0 0.00 0.03 0.03 72 1030.5
20260505022542 8 60 1.6 1.6 0.00 0.03 0.03 71 1030.7
20260505022039 8 39 1.6 1.6 0.00 0.03 0.03 71 1030.3
20260505021536 8 65 1.6 1.6 0.00 0.03 0.03 71 1030.5
20260505021032 8 72 1.6 3.2 0.13 0.03 0.03 72 1030.8
20260505020532 8 45 0.0 1.6 0.13 0.03 0.03 71 1030.8
20260505020030 8 41 3.2 4.8 0.13 0.03 0.03 72 1030.8
20260505015526 8 26 0.0 1.6 0.00 0.00 0.00 70 1030.6
20260505015023 9 33 1.6 3.2 0.00 0.00 0.00 68 1030.6
20260505014520 9 20 1.6 3.2 0.00 0.00 0.00 62 1030.5
20260505014018 9 17 0.0 1.6 0.00 0.00 0.00 64 1030.3
20260505013514 10 33 0.0 0.0 0.00 0.00 0.00 67 1030.3
20260505013012 10 29 0.0 0.0 0.00 0.00 0.00 62 1030.3
20260505012510 10 31 0.0 0.0 0.00 0.00 0.00 61 1030.3
20260505012006 10 55 0.0 1.6 0.00 0.00 0.00 59 1030.3
20260505011502 11 41 0.0 1.6 0.00 0.00 0.00 55 1030.7
20260505010959 11 26 0.0 1.6 0.00 0.00 0.00 52 1030.2
20260505010455 12 31 1.6 1.6 0.00 0.00 0.00 54 1030.0
20260505005951 12 63 4.8 4.8 0.00 0.00 0.00 47 1029.7
20260505005448 12 65 3.2 3.2 0.00 0.00 0.00 49 1029.6
20260505004946 13 44 4.8 6.4 0.00 0.00 0.00 46 1029.5
20260505004442 13 118 3.2 3.2 0.00 0.00 0.00 40 1028.8
20260505003939 13 28 4.8 6.4 0.00 0.00 0.00 39 1029.1
20260505003436 13 85 3.2 4.8 0.00 0.00 0.00 37 1028.7
20260505002932 13 62 3.2 4.8 0.00 0.00 0.00 37 1028.5
20260505002429 13 167 3.2 4.8 0.00 0.00 0.00 36 1028.6
20260505001927 14 54 3.2 6.4 0.00 0.00 0.00 36 1028.2
20260505001424 14 112 4.8 4.8 0.00 0.00 0.00 35 1028.1
20260505000921 15 104 0.0 1.6 0.00 0.00 0.00 35 1028.2
20260505000420 15 154 9.7 12.9 0.00 0.00 0.00 34 1027.7
20260504235916 15 113 4.8 6.4 0.00 0.00 0.00 32 1028.0
20260504235413 16 47 3.2 4.8 0.00 0.00 0.00 32 1028.1
20260504234909 16 320 6.4 11.3 0.00 0.00 0.00 31 1028.0
20260504234407 16 57 1.6 1.6 0.00 0.00 0.00 32 1027.8
20260504233903 16 139 3.2 4.8 0.00 0.00 0.00 32 1028.0
20260504233359 17 331 3.2 3.2 0.00 0.00 0.00 31 1028.1
20260504232856 17 305 1.6 1.6 0.00 0.00 0.00 31 1028.1
20260504232353 17 20 1.6 1.6 0.00 0.00 0.00 30 1028.5
20260504231849 17 18 0.0 0.0 0.00 0.00 0.00 31 1028.3
20260504231346 17 0 0.0 1.6 0.00 0.00 0.00 31 1028.1
20260504230842 17 29 0.0 0.0 0.00 0.00 0.00 35 1028.2
20260504230340 16 23 0.0 0.0 0.00 0.00 0.00 36 1028.0
20260504225839 16 18 0.0 1.6 0.00 0.00 0.00 34 1028.2
20260504225335 16 5 0.0 1.6 0.00 0.00 0.00 34 1028.0
20260504224833 16 5 4.8 4.8 0.00 0.00 0.00 33 1028.0
20260504224329 16 353 4.8 4.8 0.00 0.00 0.00 33 1028.3
20260504223826 16 17 0.0 1.6 0.00 0.00 0.00 34 1028.3
20260504223321 16 6 3.2 3.2 0.00 0.00 0.00 33 1028.3
20260504222818 16 3 1.6 3.2 0.00 0.00 0.00 33 1028.3
20260504222315 16 15 1.6 1.6 0.00 0.00 0.00 32 1028.3
20260504221814 16 4 1.6 1.6 0.00 0.00 0.00 33 1028.3
20260504221310 16 326 3.2 4.8 0.00 0.00 0.00 34 1028.2
20260504220807 16 359 4.8 4.8 0.00 0.00 0.00 33 1028.1
20260504220303 16 23 1.6 3.2 0.00 0.00 0.00 32 1028.2
20260504215801 16 2 1.6 3.2 0.00 0.00 0.00 28 1028.3
20260504215257 16 31 0.0 0.0 0.00 0.00 0.00 29 1028.0
20260504214753 16 99 1.6 1.6 0.00 0.00 0.00 28 1028.1
20260504214250 17 327 3.2 3.2 0.00 0.00 0.00 28 1028.1
20260504213747 17 99 4.8 6.4 0.00 0.00 0.00 27 1028.0
20260504213243 17 38 3.2 3.2 0.00 0.00 0.00 24 1027.8
20260504212740 17 101 3.2 4.8 0.00 0.00 0.00 24 1027.7
20260504212236 17 57 6.4 6.4 0.00 0.00 0.00 24 1027.7
20260504211734 18 32 1.6 1.6 0.00 0.00 0.00 24 1027.3
20260504211230 18 34 1.6 1.6 0.00 0.00 0.00 23 1027.5
20260504210728 19 50 3.2 6.4 0.00 0.00 0.00 24 1027.5
20260504210225 19 32 0.0 0.0 0.00 0.00 0.00 23 1027.3
20260504205722 19 28 0.0 0.0 0.00 0.00 0.00 22 1027.2
20260504205220 20 16 0.0 0.0 0.00 0.00 0.00 24 1027.3
20260504204717 20 28 0.0 1.6 0.00 0.00 0.00 22 1027.6
20260504204216 20 12 1.6 1.6 0.00 0.00 0.00 23 1027.5
20260504203715 20 61 1.6 3.2 0.00 0.00 0.00 20 1027.8
20260504203212 20 28 1.6 3.2 0.00 0.00 0.00 21 1028.0
20260504202711 20 18 0.0 0.0 0.00 0.00 0.00 22 1028.1
20260504202209 19 26 0.0 1.6 0.00 0.00 0.00 22 1028.0
20260504201706 18 19 0.0 0.0 0.00 0.00 0.00 23 1028.0
20260504201204 19 75 3.2 4.8 0.00 0.00 0.00 23 1027.8
20260504200701 19 3 1.6 1.6 0.00 0.00 0.00 23 1028.1
20260504200157 18 12 3.2 3.2 0.00 0.00 0.00 22 1028.1
20260504195653 18 337 0.0 0.0 0.00 0.00 0.00 23 1028.2
20260504195149 18 59 1.6 1.6 0.00 0.00 0.00 21 1028.3
20260504194646 18 340 4.8 6.4 0.00 0.00 0.00 22 1028.1
20260504194142 18 27 1.6 1.6 0.00 0.00 0.00 19 1028.3
20260504193639 19 61 1.6 1.6 0.00 0.00 0.00 20 1028.2
20260504193137 20 33 0.0 1.6 0.00 0.00 0.00 19 1028.3
20260504192635 20 63 3.2 3.2 0.00 0.00 0.00 19 1028.3
20260504192133 21 345 1.6 1.6 0.00 0.00 0.00 17 1028.3
20260504191631 21 13 0.0 0.0 0.00 0.00 0.00 17 1028.1
20260504191127 22 12 1.6 1.6 0.00 0.00 0.00 15 1028.5
20260504190623 21 91 3.2 3.2 0.00 0.00 0.00 17 1028.2
20260504190120 20 332 3.2 4.8 0.00 0.00 0.00 17 1028.5
20260504185616 20 4 1.6 1.6 0.00 0.00 0.00 19 1028.5
20260504185113 19 28 0.0 0.0 0.00 0.00 0.00 20 1028.6
20260504184608 20 87 1.6 1.6 0.00 0.00 0.00 18 1028.5
20260504184103 20 68 0.0 0.0 0.00 0.00 0.00 20 1028.7
20260504183601 20 5 0.0 0.0 0.00 0.00 0.00 18 1029.2
20260504183059 21 352 3.2 3.2 0.00 0.00 0.00 17 1029.2
20260504182555 21 9 0.0 1.6 0.00 0.00 0.00 17 1029.5
20260504182053 20 18 1.6 1.6 0.00 0.00 0.00 19 1029.5
20260504181550 21 356 1.6 3.2 0.00 0.00 0.00 19 1029.5
20260504181048 21 10 1.6 1.6 0.00 0.00 0.00 18 1029.6
20260504180547 21 349 1.6 3.2 0.00 0.00 0.00 18 1029.7
20260504180045 20 353 1.6 3.2 0.00 0.00 0.00 21 1029.5
20260504175542 18 351 1.6 1.6 0.00 0.00 0.00 21 1029.6
20260504175039 18 55 1.6 1.6 0.00 0.00 0.00 20 1029.7
20260504174537 20 17 0.0 0.0 0.00 0.00 0.00 19 1029.7
20260504174034 20 27 1.6 1.6 0.00 0.00 0.00 18 1029.8
20260504173530 21 1 1.6 3.2 0.00 0.00 0.00 19 1029.7
20260504173028 20 342 1.6 1.6 0.00 0.00 0.00 23 1029.8
20260504172524 20 4 3.2 3.2 0.00 0.00 0.00 22 1029.8
20260504172020 19 355 3.2 4.8 0.00 0.00 0.00 23 1030.0
20260504171517 20 13 0.0 0.0 0.00 0.00 0.00 21 1030.1
20260504171015 20 10 1.6 1.6 0.00 0.00 0.00 22 1030.2
20260504170510 20 29 0.0 1.6 0.00 0.00 0.00 24 1030.2
20260504160431 16 21 1.6 1.6 0.00 0.00 0.00 31 1030.7
20260504150854 15 68 1.6 3.2 0.00 0.00 0.00 32 1031.2
20260504150351 14 33 6.4 6.4 0.00 0.00 0.00 32 1031.1
20260504141321 13 358 1.6 3.2 0.00 0.00 0.00 32 1030.7
20260504140817 13 47 0.0 1.6 0.00 0.00 0.00 32 1030.8
20260504140313 13 47 0.0 1.6 0.00 0.00 0.00 32 1030.7
20260504130742 11 37 0.0 0.0 0.00 0.00 0.00 35 1030.7
20260504130238 10 40 0.0 0.0 0.00 0.00 0.00 36 1030.8